"Period start","avg(HW err(1)/warn(2) (#))","avg(Visibility (m))","avg(Weather code (#))","avg(Precip intensity (mm/h))","min(HW err(1)/warn(2) (#))","max(HW err(1)/warn(2) (#))","std(HW err(1)/warn(2) (#))","med(HW err(1)/warn(2) (#))","min(Visibility (m))","max(Visibility (m))","std(Visibility (m))","med(Visibility (m))","min(Weather code (#))","max(Weather code (#))","std(Weather code (#))","med(Weather code (#))","min(Precip intensity (mm/h))","max(Precip intensity (mm/h))","std(Precip intensity (mm/h))","med(Precip intensity (mm/h))"
2017-09-20 00:00:00,2,44147,0,0.00,2,2,0,2,29227,50000,5946,45918,0,0,0,0,0.00,0.00,0.00,0.00
2017-09-20 00:10:00,2,41320,0,0.00,2,2,0,2,36587,50000,4211,40284,0,0,0,0,0.00,0.00,0.00,0.00
2017-09-20 00:20:00,2,40501,0,0.00,2,2,0,2,24493,48131,8959,45057,0,0,0,0,0.00,0.00,0.00,0.00
2017-09-20 00:30:00,2,36996,0,0.00,2,2,0,2,23430,50000,8956,35921,0,0,0,0,0.00,0.00,0.00,0.00
2017-09-20 00:40:00,2,38767,0,0.00,2,2,0,2,22771,50000,8492,41028,0,0,0,0,0.00,0.00,0.00,0.00
2017-09-20 00:50:00,2,47007,0,0.00,2,2,0,2,34359,50000,5022,50000,0,0,0,0,0.00,0.00,0.00,0.00
2017-09-20 01:00:00,2,42350,0,0.00,2,2,0,2,31031,50000,5480,41724,0,0,0,0,0.00,0.00,0.00,0.00
2017-09-20 01:10:00,2,41922,0,0.00,2,2,0,2,35665,50000,4574,41570,0,0,0,0,0.00,0.00,0.00,0.00
2017-09-20 01:20:00,2,46880,0,0.00,2,2,0,2,40478,50000,3902,49934,0,0,0,0,0.00,0.00,0.00,0.00
2017-09-20 01:30:00,2,49569,0,0.00,2,2,0,2,46535,50000,1025,50000,0,0,0,0,0.00,0.00,0.00,0.00
2017-09-20 01:40:00,2,48299,0,0.00,2,2,0,2,41131,50000,2682,49880,0,0,0,0,0.00,0.00,0.00,0.00
2017-09-20 01:50:00,2,49895,0,0.00,2,2,0,2,48953,50000,314,50000,0,0,0,0,0.00,0.00,0.00,0.00
2017-09-20 02:00:00,2,48072,0,0.00,2,2,0,2,43056,50000,2694,50000,0,0,0,0,0.00,0.00,0.00,0.00
2017-09-20 02:10:00,2,49426,0,0.00,2,2,0,2,45905,50000,1272,50000,0,0,0,0,0.00,0.00,0.00,0.00
2017-09-20 02:20:00,2,49398,0,0.00,2,2,0,2,47334,50000,956,50000,0,0,0,0,0.00,0.00,0.00,0.00
2017-09-20 02:30:00,2,49755,0,0.00,2,2,0,2,48355,50000,525,50000,0,0,0,0,0.00,0.00,0.00,0.00
2017-09-20 02:40:00,2,49460,0,0.00,2,2,0,2,44600,50000,1620,50000,0,0,0,0,0.00,0.00,0.00,0.00
2017-09-20 02:50:00,2,49303,0,0.00,2,2,0,2,45178,50000,1517,50000,0,0,0,0,0.00,0.00,0.00,0.00
2017-09-20 03:00:00,2,49980,0,0.00,2,2,0,2,49799,50000,60,50000,0,0,0,0,0.00,0.00,0.00,0.00
2017-09-20 03:10:00,2,49941,0,0.00,2,2,0,2,49548,50000,137,50000,0,0,0,0,0.00,0.00,0.00,0.00
2017-09-20 03:20:00,2,49990,0,0.00,2,2,0,2,49904,50000,29,50000,0,0,0,0,0.00,0.00,0.00,0.00
2017-09-20 03:30:00,2,49821,0,0.00,2,2,0,2,48210,50000,537,50000,0,0,0,0,0.00,0.00,0.00,0.00
2017-09-20 03:40:00,2,49624,0,0.00,2,2,0,2,46242,50000,1127,50000,0,0,0,0,0.00,0.00,0.00,0.00
2017-09-20 03:50:00,2,47708,0,0.00,2,2,0,2,40422,50000,3285,50000,0,0,0,0,0.00,0.00,0.00,0.00
2017-09-20 04:00:00,2,49080,0,0.00,2,2,0,2,46122,50000,1405,50000,0,0,0,0,0.00,0.00,0.00,0.00
2017-09-20 04:10:00,2,44337,0,0.00,2,2,0,2,37461,50000,4878,45516,0,0,0,0,0.00,0.00,0.00,0.00
2017-09-20 04:20:00,2,48557,0,0.00,2,2,0,2,45488,50000,1717,49462,0,0,0,0,0.00,0.00,0.00,0.00
2017-09-20 04:30:00,2,47758,0,0.00,2,2,0,2,37696,50000,4022,50000,0,0,0,0,0.00,0.00,0.00,0.00
2017-09-20 04:40:00,2,47528,0,0.00,2,2,0,2,41115,50000,2888,48842,0,0,0,0,0.00,0.00,0.00,0.00
2017-09-20 04:50:00,2,49748,0,0.00,2,2,0,2,48595,50000,425,50000,0,0,0,0,0.00,0.00,0.00,0.00
2017-09-20 05:00:00,2,49181,0,0.00,2,2,0,2,41810,50000,2457,50000,0,0,0,0,0.00,0.00,0.00,0.00
2017-09-20 05:10:00,2,49658,0,0.00,2,2,0,2,46644,50000,1005,50000,0,0,0,0,0.00,0.00,0.00,0.00
2017-09-20 05:20:00,2,49364,0,0.00,2,2,0,2,43647,50000,1906,50000,0,0,0,0,0.00,0.00,0.00,0.00
2017-09-20 05:30:00,2,50000,0,0.00,2,2,0,2,50000,50000,0,50000,0,0,0,0,0.00,0.00,0.00,0.00
2017-09-20 05:40:00,2,50000,0,0.00,2,2,0,2,50000,50000,0,50000,0,0,0,0,0.00,0.00,0.00,0.00
2017-09-20 05:50:00,2,49239,0,0.00,2,2,0,2,46116,50000,1523,50000,0,0,0,0,0.00,0.00,0.00,0.00
2017-09-20 06:00:00,2,49608,0,0.00,2,2,0,2,47853,50000,722,50000,0,0,0,0,0.00,0.00,0.00,0.00
2017-09-20 06:10:00,2,49512,0,0.00,2,2,0,2,45116,50000,1465,50000,0,0,0,0,0.00,0.00,0.00,0.00
2017-09-20 06:20:00,2,50000,0,0.00,2,2,0,2,50000,50000,0,50000,0,0,0,0,0.00,0.00,0.00,0.00
2017-09-20 06:30:00,2,49972,0,0.00,2,2,0,2,49816,50000,59,50000,0,0,0,0,0.00,0.00,0.00,0.00
2017-09-20 06:40:00,2,49980,0,0.00,2,2,0,2,49805,50000,58,50000,0,0,0,0,0.00,0.00,0.00,0.00
2017-09-20 06:50:00,2,49410,0,0.00,2,2,0,2,44643,50000,1597,50000,0,0,0,0,0.00,0.00,0.00,0.00
2017-09-20 07:00:00,2,49674,0,0.00,2,2,0,2,48480,50000,533,50000,0,0,0,0,0.00,0.00,0.00,0.00
2017-09-20 07:10:00,2,50000,0,0.00,2,2,0,2,50000,50000,0,50000,0,0,0,0,0.00,0.00,0.00,0.00
2017-09-20 07:20:00,2,49771,0,0.00,2,2,0,2,47986,50000,601,50000,0,0,0,0,0.00,0.00,0.00,0.00
2017-09-20 07:30:00,2,48693,0,0.00,2,2,0,2,44646,50000,2091,50000,0,0,0,0,0.00,0.00,0.00,0.00
2017-09-20 07:40:00,2,50000,0,0.00,2,2,0,2,50000,50000,0,50000,0,0,0,0,0.00,0.00,0.00,0.00
2017-09-20 07:50:00,2,48885,0,0.00,2,2,0,2,43133,50000,2109,49867,0,0,0,0,0.00,0.00,0.00,0.00
2017-09-20 08:00:00,2,50000,0,0.00,2,2,0,2,50000,50000,0,50000,0,0,0,0,0.00,0.00,0.00,0.00
2017-09-20 08:10:00,2,50000,0,0.00,2,2,0,2,50000,50000,0,50000,0,0,0,0,0.00,0.00,0.00,0.00
2017-09-20 08:20:00,2,50000,0,0.00,2,2,0,2,50000,50000,0,50000,0,0,0,0,0.00,0.00,0.00,0.00
2017-09-20 08:30:00,2,50000,0,0.00,2,2,0,2,50000,50000,0,50000,0,0,0,0,0.00,0.00,0.00,0.00
2017-09-20 08:40:00,2,50000,0,0.00,2,2,0,2,50000,50000,0,50000,0,0,0,0,0.00,0.00,0.00,0.00
2017-09-20 08:50:00,2,50000,0,0.00,2,2,0,2,50000,50000,0,50000,0,0,0,0,0.00,0.00,0.00,0.00
2017-09-20 09:00:00,2,50000,0,0.00,2,2,0,2,50000,50000,0,50000,0,0,0,0,0.00,0.00,0.00,0.00
2017-09-20 09:10:00,2,50000,0,0.00,2,2,0,2,50000,50000,0,50000,0,0,0,0,0.00,0.00,0.00,0.00
2017-09-20 09:20:00,2,50000,0,0.00,2,2,0,2,50000,50000,0,50000,0,0,0,0,0.00,0.00,0.00,0.00
2017-09-20 09:30:00,2,50000,0,0.00,2,2,0,2,50000,50000,0,50000,0,0,0,0,0.00,0.00,0.00,0.00
2017-09-20 09:40:00,2,50000,0,0.00,2,2,0,2,50000,50000,0,50000,0,0,0,0,0.00,0.00,0.00,0.00
2017-09-20 09:50:00,2,50000,0,0.00,2,2,0,2,50000,50000,0,50000,0,0,0,0,0.00,0.00,0.00,0.00
2017-09-20 10:00:00,2,50000,0,0.00,2,2,0,2,50000,50000,0,50000,0,0,0,0,0.00,0.00,0.00,0.00
2017-09-20 10:10:00,2,50000,0,0.00,2,2,0,2,50000,50000,0,50000,0,0,0,0,0.00,0.00,0.00,0.00
2017-09-20 10:20:00,2,50000,0,0.00,2,2,0,2,50000,50000,0,50000,0,0,0,0,0.00,0.00,0.00,0.00
2017-09-20 10:30:00,2,50000,0,0.00,2,2,0,2,50000,50000,0,50000,0,0,0,0,0.00,0.00,0.00,0.00
2017-09-20 10:40:00,2,50000,0,0.00,2,2,0,2,50000,50000,0,50000,0,0,0,0,0.00,0.00,0.00,0.00
2017-09-20 10:50:00,2,50000,0,0.00,2,2,0,2,50000,50000,0,50000,0,0,0,0,0.00,0.00,0.00,0.00
2017-09-20 11:00:00,2,50000,0,0.00,2,2,0,2,50000,50000,0,50000,0,0,0,0,0.00,0.00,0.00,0.00
2017-09-20 11:10:00,2,50000,0,0.00,2,2,0,2,50000,50000,0,50000,0,0,0,0,0.00,0.00,0.00,0.00
2017-09-20 11:20:00,2,50000,0,0.00,2,2,0,2,50000,50000,0,50000,0,0,0,0,0.00,0.00,0.00,0.00
2017-09-20 11:30:00,2,50000,0,0.00,2,2,0,2,50000,50000,0,50000,0,0,0,0,0.00,0.00,0.00,0.00
2017-09-20 11:40:00,2,50000,0,0.00,2,2,0,2,50000,50000,0,50000,0,0,0,0,0.00,0.00,0.00,0.00
2017-09-20 11:50:00,2,50000,0,0.00,2,2,0,2,50000,50000,0,50000,0,0,0,0,0.00,0.00,0.00,0.00
2017-09-20 12:00:00,2,50000,0,0.00,2,2,0,2,50000,50000,0,50000,0,0,0,0,0.00,0.00,0.00,0.00
2017-09-20 12:10:00,2,50000,0,0.00,2,2,0,2,50000,50000,0,50000,0,0,0,0,0.00,0.00,0.00,0.00
2017-09-20 12:20:00,2,50000,0,0.00,2,2,0,2,50000,50000,0,50000,0,0,0,0,0.00,0.00,0.00,0.00
2017-09-20 12:30:00,2,50000,0,0.00,2,2,0,2,50000,50000,0,50000,0,0,0,0,0.00,0.00,0.00,0.00
2017-09-20 12:40:00,2,50000,0,0.00,2,2,0,2,50000,50000,0,50000,0,0,0,0,0.00,0.00,0.00,0.00
2017-09-20 12:50:00,2,50000,0,0.00,2,2,0,2,50000,50000,0,50000,0,0,0,0,0.00,0.00,0.00,0.00
2017-09-20 13:00:00,2,50000,0,0.00,2,2,0,2,50000,50000,0,50000,0,0,0,0,0.00,0.00,0.00,0.00
2017-09-20 13:10:00,2,44446,12,0.01,2,2,0,2,32102,50000,5571,44865,0,41,19,0,0.00,0.10,0.03,0.00
2017-09-20 13:20:00,2,36860,54,0.03,2,2,0,2,26300,48761,7892,35216,41,71,13,51,0.00,0.15,0.05,0.00
2017-09-20 13:30:00,2,37810,74,0.01,2,2,0,2,32420,50000,5964,34164,71,77,3,74,0.00,0.10,0.03,0.00
2017-09-20 13:40:00,2,33934,20,0.01,2,2,0,2,18183,50000,13258,29840,0,41,20,20,0.00,0.05,0.02,0.00
2017-09-20 13:50:00,2,22656,75,0.02,2,2,0,2,18972,25972,1978,22305,71,77,3,77,0.00,0.10,0.03,0.00
2017-09-20 14:00:00,2,34369,77,0.00,2,2,0,2,26724,42915,4544,33387,77,77,0,77,0.00,0.00,0.00,0.00
2017-09-20 14:10:00,2,39256,76,0.00,2,2,0,2,33266,47357,4019,38422,71,77,2,77,0.00,0.00,0.00,0.00
2017-09-20 14:20:00,2,32423,76,0.01,2,2,0,2,19293,47501,11428,29602,71,77,2,77,0.00,0.05,0.02,0.00
2017-09-20 14:30:00,2,20218,73,0.01,2,2,0,2,17186,26705,2498,19365,71,77,3,71,0.00,0.10,0.03,0.00
2017-09-20 14:40:00,2,16728,72,0.06,2,2,0,2,10692,21279,3816,17555,71,77,2,71,0.00,0.20,0.07,0.05
2017-09-20 14:50:00,2,10147,71,0.36,2,2,0,2,8982,11679,904,10274,71,71,0,71,0.10,0.90,0.23,0.30
2017-09-20 15:00:00,2,12078,71,0.19,2,2,0,2,9224,16007,2549,10570,71,71,0,71,0.00,0.65,0.19,0.15
2017-09-20 15:10:00,2,11684,71,0.09,2,2,0,2,10011,13978,1500,11230,71,71,0,71,0.05,0.20,0.05,0.08
2017-09-20 15:20:00,2,9835,71,0.14,2,2,0,2,8761,10611,642,9940,71,71,0,71,0.05,0.25,0.06,0.15
2017-09-20 15:30:00,2,8566,71,0.21,2,2,0,2,7444,9814,643,8554,71,71,0,71,0.05,0.40,0.13,0.17
2017-09-20 15:40:00,2,9392,71,0.12,2,2,0,2,8238,11019,903,9192,71,71,0,71,0.05,0.40,0.12,0.05
2017-09-20 15:50:00,2,8033,71,0.27,2,2,0,2,6534,10669,1176,8022,71,71,0,71,0.05,0.55,0.16,0.23
2017-09-20 16:00:00,2,7599,71,0.30,2,2,0,2,6543,8618,599,7519,71,71,0,71,0.10,0.55,0.13,0.30
2017-09-20 16:10:00,2,5931,71,0.61,2,2,0,2,4794,7802,781,5888,71,71,0,71,0.20,0.95,0.25,0.60
2017-09-20 16:20:00,2,6608,71,0.26,2,2,0,2,5655,7054,364,6662,71,71,0,71,0.15,0.45,0.09,0.25
2017-09-20 16:30:00,2,6622,72,0.21,2,2,0,2,5832,7594,482,6654,71,77,2,71,0.15,0.30,0.04,0.20
2017-09-20 16:40:00,2,6268,77,0.16,2,2,0,2,5613,7032,447,6239,77,77,0,77,0.05,0.25,0.07,0.15
2017-09-20 16:50:00,2,8587,72,0.11,2,2,0,2,7204,10328,852,8616,71,77,2,71,0.05,0.25,0.07,0.10
2017-09-20 17:00:00,2,9428,71,0.15,2,2,0,2,8140,10416,676,9480,71,71,0,71,0.05,0.40,0.10,0.12
2017-09-20 17:10:00,2,7842,73,0.18,2,2,0,2,6963,8800,528,7937,71,77,3,71,0.05,0.25,0.06,0.20
2017-09-20 17:20:00,2,5085,71,1.00,2,2,0,2,4094,6564,793,4937,71,71,0,71,0.40,1.75,0.48,0.97
2017-09-20 17:30:00,2,3567,71,1.89,2,2,0,2,2741,4536,528,3506,71,71,0,71,1.30,2.50,0.38,1.88
2017-09-20 17:40:00,2,2979,71,2.92,2,2,0,2,2641,3354,219,2936,71,71,0,71,1.95,3.60,0.53,3.00
2017-09-20 17:50:00,2,3246,71,2.61,2,2,0,2,2122,5282,1135,2729,71,71,0,71,0.75,4.35,1.15,2.78
2017-09-20 18:00:00,2,8496,71,0.20,2,2,0,2,6036,11643,1762,8103,71,71,0,71,0.00,1.00,0.32,0.05
2017-09-20 18:10:00,2,14821,71,0.11,2,2,0,2,9760,17995,2248,14824,71,71,0,71,0.00,0.50,0.14,0.08
2017-09-20 18:20:00,2,17010,71,0.08,2,2,0,2,13999,20477,2374,16736,71,71,0,71,0.00,0.20,0.06,0.05
2017-09-20 18:30:00,2,13984,71,0.19,2,2,0,2,10396,16857,1934,14457,71,71,0,71,0.00,0.40,0.12,0.17
2017-09-20 18:40:00,2,14008,71,0.40,2,2,0,2,9191,22876,3722,13066,71,71,0,71,0.10,0.85,0.24,0.35
2017-09-20 18:50:00,2,22160,71,0.07,2,2,0,2,16773,27267,3781,23030,71,71,0,71,0.00,0.20,0.06,0.05
2017-09-20 19:00:00,2,24281,71,0.11,2,2,0,2,14771,33413,5562,24682,71,71,0,71,0.00,0.25,0.09,0.05
2017-09-20 19:10:00,2,21516,71,0.17,2,2,0,2,14924,35841,5772,20148,71,71,0,71,0.00,0.35,0.11,0.17
2017-09-20 19:20:00,2,20779,71,0.18,2,2,0,2,11765,34965,7684,18008,71,71,0,71,0.00,0.65,0.18,0.15
2017-09-20 19:30:00,2,21221,71,0.13,2,2,0,2,13242,26160,4206,22625,71,71,0,71,0.00,0.35,0.12,0.10
2017-09-20 19:40:00,2,30355,71,0.03,2,2,0,2,20890,44943,6916,28994,71,71,0,71,0.00,0.10,0.03,0.03
2017-09-20 19:50:00,2,46116,21,0.01,2,2,0,2,28325,50000,7189,50000,0,71,33,0,0.00,0.10,0.03,0.00
2017-09-20 20:00:00,2,50000,0,0.00,2,2,0,2,50000,50000,0,50000,0,0,0,0,0.00,0.00,0.00,0.00
2017-09-20 20:10:00,2,49979,0,0.00,2,2,0,2,49786,50000,64,50000,0,0,0,0,0.00,0.00,0.00,0.00
2017-09-20 20:20:00,2,50000,0,0.00,2,2,0,2,50000,50000,0,50000,0,0,0,0,0.00,0.00,0.00,0.00
2017-09-20 20:30:00,2,27373,52,0.12,2,2,0,2,12209,43006,11325,28132,0,71,22,56,0.00,0.40,0.13,0.08
2017-09-20 20:40:00,2,44523,43,0.01,2,2,0,2,34124,50000,6257,47984,0,71,35,71,0.00,0.15,0.05,0.00
2017-09-20 20:50:00,2,48673,73,0.00,2,2,0,2,41474,50000,2505,49970,71,77,3,71,0.00,0.00,0.00,0.00
2017-09-20 21:00:00,2,26285,75,0.03,2,2,0,2,15152,40011,8601,24797,71,77,3,77,0.00,0.05,0.03,0.03
2017-09-20 21:10:00,2,39806,75,0.01,2,2,0,2,22365,48878,7330,41473,71,77,3,77,0.00,0.05,0.02,0.00
2017-09-20 21:20:00,2,24968,73,0.08,2,2,0,2,11324,41053,8976,23434,71,77,3,71,0.00,0.45,0.13,0.05
2017-09-20 21:30:00,2,10944,71,0.35,2,2,0,2,7653,13613,2045,11221,71,71,0,71,0.10,0.90,0.23,0.30
2017-09-20 21:40:00,2,12924,71,0.27,2,2,0,2,5512,21113,4448,13196,71,71,0,71,0.00,1.00,0.27,0.15
2017-09-20 21:50:00,2,7475,71,0.56,2,2,0,2,4870,13056,2352,6784,71,71,0,71,0.10,1.60,0.44,0.45
2017-09-20 22:00:00,2,14806,71,0.25,2,2,0,2,4432,34242,9112,11510,71,71,0,71,0.00,0.95,0.33,0.08
2017-09-20 22:10:00,2,24403,74,0.08,2,2,0,2,9535,36800,8511,27016,71,77,3,74,0.00,0.35,0.12,0.03
2017-09-20 22:20:00,2,43776,74,0.00,2,2,0,2,30297,50000,5577,45106,71,77,3,74,0.00,0.00,0.00,0.00
2017-09-20 22:30:00,2,34480,23,0.08,2,2,0,2,7341,50000,17723,44878,0,71,25,20,0.00,0.35,0.13,0.00
2017-09-20 22:40:00,2,19054,72,0.11,2,2,0,2,8892,32714,8827,16108,71,77,2,71,0.00,0.30,0.12,0.08
2017-09-20 22:50:00,2,13625,73,0.24,2,2,0,2,7648,36322,8349,10332,71,77,3,71,0.00,0.45,0.14,0.25
2017-09-20 23:00:00,2,10022,71,0.34,2,2,0,2,6377,14071,1828,10074,71,71,0,71,0.10,1.15,0.28,0.28
2017-09-20 23:10:00,2,7690,71,0.65,2,2,0,2,5323,9133,1000,7846,71,71,0,71,0.30,1.30,0.28,0.57
2017-09-20 23:20:00,2,11380,71,0.47,2,2,0,2,6374,15440,2476,11596,71,71,0,71,0.05,1.45,0.39,0.38
2017-09-20 23:30:00,2,27575,71,0.03,2,2,0,2,15131,38459,7065,27644,71,71,0,71,0.00,0.15,0.05,0.00
2017-09-20 23:40:00,2,25353,75,0.03,2,2,0,2,20613,29526,3220,25726,71,77,3,77,0.00,0.15,0.04,0.03
2017-09-20 23:50:00,2,31102,71,0.04,2,2,0,2,22126,47509,7300,29727,71,71,0,71,0.00,0.15,0.05,0.03
